| time (UTC) | temp C | wind direction | speed KPH | gust KPH | rain 1hr cm | rain 24hr cm | rain mn cm | humidity % | barometer mb |
| 20260502200052 | 8 | 334 | 0.0 | 0.0 | 0.30 | 0.33 | 0.33 | 99 | 1011.1 |
| 20260502195550 | 8 | 317 | 1.6 | 3.2 | 0.30 | 0.30 | 0.30 | 98 | 1011.2 |
| 20260502195046 | 8 | 21 | 1.6 | 1.6 | 0.13 | 0.28 | 0.28 | 98 | 1011.2 |
| 20260502194542 | 8 | 303 | 0.0 | 0.0 | 0.00 | 0.25 | 0.25 | 98 | 1011.2 |
| 20260502194039 | 8 | 9 | 0.0 | 1.6 | 0.00 | 0.25 | 0.25 | 97 | 1011.3 |
| 20260502193536 | 8 | 346 | 1.6 | 1.6 | 0.00 | 0.25 | 0.25 | 96 | 1011.2 |
| 20260502193033 | 8 | 319 | 1.6 | 1.6 | 0.00 | 0.25 | 0.25 | 96 | 1011.3 |
| 20260502192528 | 8 | 313 | 0.0 | 0.0 | 0.00 | 0.25 | 0.25 | 96 | 1011.4 |
| 20260502192026 | 8 | 25 | 3.2 | 3.2 | 0.00 | 0.25 | 0.25 | 96 | 1011.4 |
| 20260502191523 | 8 | 325 | 1.6 | 1.6 | 0.00 | 0.25 | 0.25 | 96 | 1011.3 |
| 20260502191021 | 8 | 349 | 0.0 | 0.0 | 0.00 | 0.25 | 0.25 | 96 | 1011.3 |
| 20260502190518 | 8 | 19 | 1.6 | 3.2 | 0.00 | 0.25 | 0.25 | 96 | 1011.5 |
| 20260502190014 | 8 | 273 | 0.0 | 0.0 | 0.18 | 0.25 | 0.25 | 96 | 1011.4 |
| 20260502185510 | 8 | 314 | 3.2 | 4.8 | 0.18 | 0.25 | 0.25 | 96 | 1011.6 |
| 20260502185007 | 8 | 14 | 3.2 | 3.2 | 0.00 | 0.23 | 0.23 | 95 | 1011.7 |
| 20260502184502 | 8 | 3 | 1.6 | 1.6 | 0.00 | 0.23 | 0.23 | 94 | 1011.9 |
| 20260502183959 | 9 | 312 | 0.0 | 0.0 | 0.00 | 0.23 | 0.23 | 94 | 1011.7 |
| 20260502183455 | 8 | 325 | 0.0 | 1.6 | 0.00 | 0.23 | 0.23 | 93 | 1011.7 |
| 20260502182950 | 9 | 32 | 3.2 | 4.8 | 0.00 | 0.23 | 0.23 | 92 | 1011.7 |
| 20260502182446 | 9 | 307 | 0.0 | 0.0 | 0.00 | 0.23 | 0.23 | 91 | 1011.8 |
| 20260502181942 | 9 | 290 | 1.6 | 1.6 | 0.00 | 0.23 | 0.23 | 91 | 1011.7 |
| 20260502181441 | 9 | 250 | 1.6 | 1.6 | 0.00 | 0.23 | 0.23 | 91 | 1011.9 |
| 20260502180939 | 9 | 328 | 1.6 | 1.6 | 0.00 | 0.23 | 0.23 | 92 | 1011.9 |
| 20260502180436 | 10 | 35 | 1.6 | 1.6 | 0.00 | 0.23 | 0.23 | 93 | 1011.9 |
| 20260502170349 | 8 | 351 | 0.0 | 1.6 | 0.00 | 0.23 | 0.23 | 97 | 1011.9 |
| 20260502164336 | 7 | 327 | 0.0 | 1.6 | 0.00 | 0.23 | 0.23 | 96 | 1012.1 |
| 20260502163832 | 7 | 9 | 4.8 | 4.8 | 0.00 | 0.23 | 0.23 | 96 | 1012.0 |
| 20260502163328 | 7 | 29 | 1.6 | 1.6 | 0.00 | 0.23 | 0.23 | 96 | 1012.1 |
| 20260502162826 | 7 | 312 | 0.0 | 0.0 | 0.00 | 0.23 | 0.23 | 96 | 1012.0 |
| 20260502162322 | 7 | 24 | 3.2 | 3.2 | 0.00 | 0.23 | 0.23 | 96 | 1012.1 |
| 20260502161820 | 7 | 27 | 3.2 | 3.2 | 0.00 | 0.23 | 0.23 | 96 | 1011.9 |
| 20260502161316 | 7 | 47 | 6.4 | 6.4 | 0.00 | 0.23 | 0.23 | 96 | 1012.0 |
| 20260502160814 | 7 | 6 | 1.6 | 3.2 | 0.00 | 0.23 | 0.23 | 96 | 1012.2 |
| 20260502160312 | 7 | 23 | 3.2 | 3.2 | 0.00 | 0.23 | 0.23 | 96 | 1012.0 |
| 20260502152235 | 7 | 83 | 6.4 | 9.7 | 0.00 | 0.23 | 0.23 | 95 | 1012.1 |
| 20260502151733 | 7 | 135 | 3.2 | 4.8 | 0.00 | 0.23 | 0.23 | 96 | 1012.4 |
| 20260502151230 | 7 | 142 | 3.2 | 3.2 | 0.00 | 0.23 | 0.23 | 94 | 1012.2 |
| 20260502150727 | 7 | 2 | 3.2 | 6.4 | 0.00 | 0.23 | 0.23 | 95 | 1012.1 |
| 20260502150218 | 7 | 58 | 3.2 | 4.8 | 0.00 | 0.23 | 0.23 | 95 | 1012.3 |
| 20260502130607 | 6 | 4 | 3.2 | 3.2 | 0.30 | 0.15 | 0.15 | 96 | 1013.3 |
| 20260502130105 | 6 | 18 | 1.6 | 1.6 | 0.13 | 0.13 | 0.13 | 95 | 1013.3 |
| 20260502123550 | 6 | 74 | 4.8 | 6.4 | 0.00 | 0.10 | 0.10 | 94 | 1013.0 |
| 20260502123046 | 6 | 319 | 3.2 | 3.2 | 0.00 | 0.10 | 0.10 | 94 | 1012.9 |
| 20260502122543 | 5 | 13 | 3.2 | 3.2 | 0.00 | 0.10 | 0.10 | 95 | 1013.1 |
| 20260502122040 | 5 | 21 | 3.2 | 3.2 | 0.18 | 0.10 | 0.10 | 95 | 1013.0 |
| 20260502121538 | 5 | 73 | 3.2 | 4.8 | 0.18 | 0.10 | 0.10 | 95 | 1013.1 |
| 20260502121035 | 5 | 25 | 3.2 | 3.2 | 0.30 | 0.10 | 0.10 | 96 | 1013.2 |
| 20260502120531 | 5 | 16 | 8.0 | 12.9 | 0.13 | 0.08 | 0.08 | 98 | 1013.3 |
| 20260502115526 | 5 | 298 | 0.0 | 0.0 | 0.36 | 0.05 | 0.05 | 98 | 1013.8 |
| 20260502115022 | 5 | 303 | 0.0 | 0.0 | 0.18 | 0.03 | 0.03 | 98 | 1013.6 |
| 20260502114519 | 5 | 283 | 0.0 | 0.0 | 0.00 | 0.00 | 0.00 | 97 | 1013.5 |
| 20260502114015 | 5 | 273 | 0.0 | 0.0 | 0.00 | 0.00 | 0.00 | 97 | 1013.7 |
| 20260502113513 | 5 | 334 | 0.0 | 0.0 | 0.00 | 0.00 | 0.00 | 97 | 1013.6 |
| 20260502113012 | 5 | 212 | 1.6 | 1.6 | 0.00 | 0.00 | 0.00 | 97 | 1013.7 |
| 20260502112509 | 5 | 347 | 1.6 | 3.2 | 0.00 | 0.00 | 0.00 | 96 | 1013.3 |
| 20260502112006 | 5 | 278 | 3.2 | 3.2 | 0.00 | 0.00 | 0.00 | 96 | 1013.4 |
| 20260502111504 | 5 | 250 | 0.0 | 1.6 | 0.00 | 0.00 | 0.00 | 97 | 1013.4 |
| 20260502111001 | 5 | 267 | 1.6 | 1.6 | 0.00 | 0.00 | 0.00 | 96 | 1013.4 |
| 20260502110458 | 5 | 18 | 1.6 | 3.2 | 0.00 | 0.00 | 0.00 | 97 | 1013.1 |
| 20260502105955 | 5 | 0 | 1.6 | 3.2 | 0.00 | 0.00 | 0.00 | 98 | 1013.3 |
| 20260502105453 | 5 | 279 | 0.0 | 1.6 | 0.00 | 0.00 | 0.00 | 98 | 1013.5 |
| 20260502104950 | 4 | 286 | 1.6 | 1.6 | 0.00 | 0.00 | 0.00 | 97 | 1013.2 |
| 20260502104447 | 4 | 327 | 0.0 | 0.0 | 0.00 | 0.00 | 0.00 | 97 | 1013.3 |
| 20260502103945 | 4 | 288 | 0.0 | 0.0 | 0.00 | 0.00 | 0.00 | 97 | 1013.2 |
| 20260502103442 | 4 | 251 | 0.0 | 1.6 | 0.00 | 0.00 | 0.00 | 97 | 1013.0 |
| 20260502102939 | 3 | 52 | 3.2 | 3.2 | 0.00 | 0.00 | 0.00 | 96 | 1012.8 |
| 20260502102436 | 3 | 314 | 0.0 | 0.0 | 0.00 | 0.00 | 0.00 | 96 | 1013.0 |
| 20260502101933 | 3 | 285 | 0.0 | 1.6 | 0.00 | 0.00 | 0.00 | 95 | 1012.7 |
| 20260502101431 | 3 | 285 | 0.0 | 0.0 | 0.00 | 0.00 | 0.00 | 95 | 1012.8 |
| 20260502100929 | 3 | 313 | 0.0 | 0.0 | 0.00 | 0.00 | 0.00 | 95 | 1012.6 |
| 20260502100428 | 3 | 235 | 0.0 | 1.6 | 0.00 | 0.00 | 0.00 | 95 | 1012.5 |
| 20260502091402 | 2 | 316 | 0.0 | 0.0 | 0.00 | 0.00 | 0.00 | 96 | 1012.3 |
| 20260502090859 | 2 | 308 | 0.0 | 0.0 | 0.00 | 0.00 | 0.00 | 96 | 1012.2 |
| 20260502090356 | 2 | 327 | 0.0 | 0.0 | 0.00 | 0.00 | 0.00 | 96 | 1012.2 |
| 20260502071251 | 2 | 300 | 0.0 | 0.0 | 0.00 | 0.00 | 0.00 | 95 | 1012.8 |
| 20260502070749 | 2 | 300 | 0.0 | 0.0 | 0.00 | 0.00 | 0.00 | 95 | 1012.7 |
| 20260502070247 | 2 | 300 | 0.0 | 0.0 | 0.00 | 0.00 | 0.00 | 95 | 1012.5 |
| 20260502065745 | 2 | 302 | 0.0 | 0.0 | 0.00 | 0.00 | 0.00 | 95 | 1012.6 |
| 20260502065243 | 1 | 303 | 0.0 | 0.0 | 0.00 | 0.00 | 0.00 | 95 | 1012.4 |
| 20260502064741 | 1 | 305 | 0.0 | 0.0 | 0.00 | 0.00 | 0.00 | 95 | 1012.4 |
| 20260502064238 | 1 | 288 | 0.0 | 0.0 | 0.00 | 0.00 | 0.00 | 95 | 1012.4 |
| 20260502063735 | 1 | 292 | 0.0 | 0.0 | 0.00 | 0.00 | 0.00 | 95 | 1012.3 |
| 20260502063233 | 1 | 299 | 0.0 | 0.0 | 0.00 | 0.00 | 0.00 | 95 | 1012.3 |
| 20260502062730 | 1 | 300 | 0.0 | 0.0 | 0.00 | 0.00 | 0.00 | 95 | 1012.2 |
| 20260502062228 | 1 | 306 | 0.0 | 0.0 | 0.00 | 0.00 | 0.00 | 96 | 1012.1 |
| 20260502061726 | 1 | 303 | 0.0 | 0.0 | 0.00 | 0.00 | 0.00 | 96 | 1012.2 |
| 20260502061224 | 0 | 288 | 0.0 | 0.0 | 0.00 | 0.00 | 0.00 | 96 | 1012.1 |
| 20260502060719 | 0 | 289 | 0.0 | 0.0 | 0.00 | 0.00 | 0.00 | 96 | 1012.1 |
| 20260502060215 | 0 | 300 | 0.0 | 0.0 | 0.00 | 0.00 | 0.00 | 96 | 1012.0 |
| 20260502055712 | 0 | 311 | 0.0 | 0.0 | 0.00 | 0.00 | 0.00 | 95 | 1012.0 |
| 20260502055210 | 0 | 302 | 0.0 | 0.0 | 0.00 | 0.00 | 0.00 | 96 | 1012.3 |
| 20260502054704 | 0 | 311 | 0.0 | 0.0 | 0.00 | 0.00 | 0.00 | 96 | 1012.1 |
| 20260502054201 | 0 | 306 | 0.0 | 0.0 | 0.00 | 0.00 | 0.00 | 96 | 1012.1 |
| 20260502053658 | 0 | 301 | 0.0 | 0.0 | 0.00 | 0.00 | 0.00 | 96 | 1012.2 |
| 20260502053155 | 0 | 291 | 0.0 | 0.0 | 0.00 | 0.00 | 0.00 | 95 | 1012.3 |
| 20260502052653 | 0 | 300 | 0.0 | 0.0 | 0.00 | 0.00 | 0.00 | 95 | 1012.2 |
| 20260502052151 | 0 | 308 | 0.0 | 0.0 | 0.00 | 0.00 | 0.00 | 95 | 1012.0 |
| 20260502051649 | 0 | 314 | 0.0 | 0.0 | 0.00 | 0.00 | 0.00 | 94 | 1011.9 |
| 20260502051147 | 0 | 299 | 0.0 | 0.0 | 0.00 | 0.00 | 0.00 | 94 | 1012.2 |
| 20260502050643 | 0 | 299 | 0.0 | 0.0 | 0.00 | 0.00 | 0.00 | 94 | 1012.1 |
| 20260502050140 | 0 | 301 | 0.0 | 0.0 | 0.00 | 0.00 | 0.00 | 93 | 1011.9 |
| 20260502045636 | 0 | 292 | 0.0 | 0.0 | 0.00 | 0.00 | 0.00 | 93 | 1012.0 |
| 20260502045134 | 0 | 296 | 0.0 | 0.0 | 0.00 | 0.00 | 0.00 | 93 | 1011.9 |
| 20260502044630 | 0 | 317 | 0.0 | 0.0 | 0.00 | 0.00 | 0.00 | 93 | 1012.1 |
| 20260502044126 | 0 | 303 | 0.0 | 0.0 | 0.00 | 0.00 | 0.00 | 93 | 1012.1 |
| 20260502043624 | 0 | 303 | 0.0 | 0.0 | 0.00 | 0.00 | 0.00 | 93 | 1011.9 |
| 20260502043121 | 0 | 303 | 0.0 | 0.0 | 0.00 | 0.00 | 0.00 | 92 | 1012.1 |
| 20260502042615 | 0 | 303 | 0.0 | 0.0 | 0.00 | 0.00 | 0.00 | 92 | 1012.0 |
| 20260502042113 | 0 | 305 | 0.0 | 0.0 | 0.00 | 0.00 | 0.00 | 92 | 1012.1 |
| 20260502041610 | 0 | 299 | 0.0 | 0.0 | 0.00 | 0.00 | 0.00 | 92 | 1011.9 |
| 20260502041107 | 1 | 302 | 0.0 | 0.0 | 0.00 | 0.00 | 0.00 | 91 | 1011.8 |
| 20260502040604 | 1 | 309 | 0.0 | 0.0 | 0.00 | 0.00 | 0.00 | 90 | 1011.9 |
| 20260502035556 | 1 | 302 | 0.0 | 0.0 | 0.00 | 0.00 | 0.00 | 90 | 1011.8 |
| 20260502035054 | 1 | 302 | 0.0 | 0.0 | 0.00 | 0.00 | 0.00 | 89 | 1011.8 |
| 20260502034552 | 1 | 306 | 0.0 | 0.0 | 0.00 | 0.00 | 0.00 | 89 | 1011.8 |
| 20260502034050 | 1 | 303 | 0.0 | 0.0 | 0.00 | 0.00 | 0.00 | 89 | 1011.9 |
| 20260502033548 | 1 | 306 | 0.0 | 0.0 | 0.00 | 0.00 | 0.00 | 89 | 1011.7 |
| 20260502033045 | 1 | 300 | 0.0 | 0.0 | 0.00 | 0.00 | 0.00 | 89 | 1011.9 |
| 20260502032541 | 1 | 296 | 0.0 | 0.0 | 0.00 | 0.00 | 0.00 | 89 | 1011.8 |
| 20260502032038 | 2 | 296 | 0.0 | 0.0 | 0.00 | 0.00 | 0.00 | 88 | 1011.7 |
| 20260502031536 | 2 | 296 | 0.0 | 0.0 | 0.00 | 0.00 | 0.00 | 87 | 1011.8 |
| 20260502031033 | 2 | 309 | 0.0 | 0.0 | 0.00 | 0.00 | 0.00 | 86 | 1011.7 |
| 20260502030532 | 2 | 297 | 0.0 | 0.0 | 0.00 | 0.00 | 0.00 | 86 | 1011.6 |
| 20260502030030 | 2 | 309 | 0.0 | 0.0 | 0.00 | 0.00 | 0.00 | 86 | 1011.8 |
| 20260502025527 | 2 | 309 | 0.0 | 0.0 | 0.00 | 0.00 | 0.00 | 85 | 1011.7 |
| 20260502025025 | 2 | 313 | 0.0 | 0.0 | 0.00 | 0.00 | 0.00 | 84 | 1011.6 |
| 20260502024521 | 2 | 313 | 0.0 | 0.0 | 0.00 | 0.00 | 0.00 | 84 | 1011.8 |
| 20260502024020 | 3 | 332 | 0.0 | 0.0 | 0.00 | 0.00 | 0.00 | 83 | 1011.7 |
| 20260502023517 | 3 | 308 | 0.0 | 0.0 | 0.00 | 0.00 | 0.00 | 83 | 1011.8 |
| 20260502023015 | 3 | 312 | 0.0 | 0.0 | 0.00 | 0.00 | 0.00 | 82 | 1011.8 |
| 20260502022511 | 3 | 309 | 0.0 | 0.0 | 0.00 | 0.00 | 0.00 | 81 | 1011.7 |
| 20260502022009 | 3 | 313 | 0.0 | 0.0 | 0.00 | 0.00 | 0.00 | 80 | 1011.7 |
| 20260502021506 | 3 | 313 | 0.0 | 0.0 | 0.00 | 0.00 | 0.00 | 79 | 1011.7 |
| 20260502021003 | 3 | 320 | 0.0 | 0.0 | 0.00 | 0.00 | 0.00 | 78 | 1011.9 |
| 20260502020500 | 3 | 309 | 0.0 | 0.0 | 0.00 | 0.00 | 0.00 | 79 | 1011.7 |
| 20260502015957 | 4 | 310 | 0.0 | 0.0 | 0.00 | 0.00 | 0.00 | 77 | 1011.7 |
| 20260502015455 | 4 | 310 | 0.0 | 0.0 | 0.00 | 0.00 | 0.00 | 76 | 1011.7 |
| 20260502014951 | 4 | 313 | 0.0 | 0.0 | 0.00 | 0.00 | 0.00 | 76 | 1011.6 |
| 20260502014448 | 4 | 312 | 0.0 | 0.0 | 0.00 | 0.00 | 0.00 | 75 | 1011.5 |
| 20260502013945 | 5 | 312 | 0.0 | 0.0 | 0.00 | 0.00 | 0.00 | 73 | 1011.6 |
| 20260502013440 | 5 | 314 | 0.0 | 0.0 | 0.00 | 0.00 | 0.00 | 73 | 1011.5 |
| 20260502012937 | 5 | 329 | 0.0 | 0.0 | 0.00 | 0.00 | 0.00 | 72 | 1011.5 |
| 20260502012435 | 5 | 321 | 0.0 | 0.0 | 0.00 | 0.00 | 0.00 | 74 | 1011.5 |
| 20260502011932 | 6 | 307 | 0.0 | 0.0 | 0.00 | 0.00 | 0.00 | 73 | 1011.4 |
| 20260502011428 | 6 | 309 | 0.0 | 0.0 | 0.00 | 0.00 | 0.00 | 71 | 1011.5 |
| 20260502010925 | 6 | 309 | 0.0 | 0.0 | 0.00 | 0.00 | 0.00 | 69 | 1011.3 |
| 20260502010421 | 7 | 282 | 0.0 | 0.0 | 0.00 | 0.00 | 0.00 | 69 | 1011.3 |
| 20260502005918 | 7 | 289 | 0.0 | 0.0 | 0.00 | 0.00 | 0.00 | 61 | 1011.1 |
| 20260502005416 | 8 | 301 | 0.0 | 0.0 | 0.00 | 0.00 | 0.00 | 57 | 1011.1 |
| 20260502004914 | 8 | 299 | 0.0 | 0.0 | 0.00 | 0.00 | 0.00 | 54 | 1010.9 |
| 20260502004409 | 8 | 315 | 0.0 | 0.0 | 0.00 | 0.00 | 0.00 | 53 | 1011.1 |
| 20260502003906 | 9 | 334 | 0.0 | 0.0 | 0.00 | 0.00 | 0.00 | 49 | 1011.0 |
| 20260502003403 | 9 | 309 | 0.0 | 0.0 | 0.00 | 0.00 | 0.00 | 49 | 1010.9 |
| 20260502002854 | 9 | 324 | 0.0 | 0.0 | 0.00 | 0.00 | 0.00 | 51 | 1010.9 |
| 20260502002352 | 9 | 302 | 0.0 | 0.0 | 0.00 | 0.00 | 0.00 | 49 | 1011.0 |
| 20260502001849 | 10 | 283 | 0.0 | 0.0 | 0.00 | 0.00 | 0.00 | 48 | 1010.8 |
| 20260502001346 | 10 | 287 | 1.6 | 1.6 | 0.00 | 0.00 | 0.00 | 47 | 1010.6 |
| 20260502000844 | 10 | 292 | 0.0 | 0.0 | 0.00 | 0.00 | 0.00 | 46 | 1010.5 |
| 20260502000342 | 11 | 268 | 0.0 | 0.0 | 0.00 | 0.00 | 0.00 | 45 | 1010.3 |
| 20260501235838 | 11 | 325 | 1.6 | 3.2 | 0.00 | 0.00 | 0.00 | 44 | 1010.3 |
| 20260501235334 | 11 | 303 | 1.6 | 1.6 | 0.00 | 0.00 | 0.00 | 42 | 1010.1 |
| 20260501234829 | 11 | 268 | 0.0 | 1.6 | 0.00 | 0.00 | 0.00 | 45 | 1010.0 |
| 20260501234326 | 11 | 274 | 0.0 | 0.0 | 0.00 | 0.00 | 0.00 | 43 | 1009.9 |
| 20260501233825 | 11 | 310 | 0.0 | 1.6 | 0.00 | 0.00 | 0.00 | 42 | 1009.7 |
| 20260501233322 | 12 | 330 | 1.6 | 3.2 | 0.00 | 0.00 | 0.00 | 41 | 1009.8 |
| 20260501232817 | 12 | 316 | 1.6 | 1.6 | 0.00 | 0.00 | 0.00 | 41 | 1009.9 |
| 20260501232315 | 12 | 320 | 0.0 | 1.6 | 0.00 | 0.00 | 0.00 | 39 | 1009.5 |
| 20260501231812 | 12 | 332 | 3.2 | 4.8 | 0.00 | 0.00 | 0.00 | 39 | 1009.7 |
| 20260501231310 | 13 | 266 | 3.2 | 3.2 | 0.00 | 0.00 | 0.00 | 38 | 1009.5 |
| 20260501230808 | 13 | 271 | 6.4 | 6.4 | 0.00 | 0.00 | 0.00 | 36 | 1009.4 |
| 20260501230307 | 13 | 27 | 3.2 | 4.8 | 0.00 | 0.00 | 0.00 | 37 | 1009.4 |
| 20260501225804 | 13 | 275 | 6.4 | 6.4 | 0.00 | 0.00 | 0.00 | 36 | 1009.3 |
| 20260501225305 | 13 | 246 | 1.6 | 3.2 | 0.00 | 0.00 | 0.00 | 37 | 1009.1 |
| 20260501224757 | 13 | 263 | 3.2 | 3.2 | 0.00 | 0.00 | 0.00 | 36 | 1009.3 |
| 20260501224255 | 13 | 157 | 6.4 | 9.7 | 0.00 | 0.00 | 0.00 | 34 | 1009.0 |
| 20260501223751 | 13 | 240 | 3.2 | 4.8 | 0.00 | 0.00 | 0.00 | 35 | 1009.1 |
| 20260501223247 | 14 | 332 | 4.8 | 9.7 | 0.00 | 0.00 | 0.00 | 36 | 1008.9 |
| 20260501222743 | 15 | 266 | 3.2 | 4.8 | 0.00 | 0.00 | 0.00 | 35 | 1008.9 |
| 20260501222241 | 15 | 270 | 3.2 | 4.8 | 0.00 | 0.00 | 0.00 | 36 | 1008.8 |
| 20260501221738 | 15 | 317 | 1.6 | 1.6 | 0.00 | 0.00 | 0.00 | 36 | 1008.6 |
| 20260501221235 | 15 | 275 | 11.3 | 12.9 | 0.00 | 0.00 | 0.00 | 34 | 1008.4 |
| 20260501220732 | 15 | 172 | 3.2 | 4.8 | 0.00 | 0.00 | 0.00 | 34 | 1008.5 |
| 20260501220229 | 15 | 314 | 3.2 | 3.2 | 0.00 | 0.00 | 0.00 | 35 | 1008.4 |
| 20260501215727 | 15 | 28 | 4.8 | 6.4 | 0.00 | 0.00 | 0.00 | 34 | 1008.5 |
| 20260501215222 | 15 | 220 | 8.0 | 11.3 | 0.00 | 0.00 | 0.00 | 34 | 1008.3 |
| 20260501214717 | 15 | 256 | 4.8 | 4.8 | 0.00 | 0.00 | 0.00 | 34 | 1008.2 |
| 20260501214213 | 15 | 256 | 3.2 | 6.4 | 0.00 | 0.00 | 0.00 | 34 | 1008.2 |
| 20260501213710 | 15 | 299 | 3.2 | 6.4 | 0.00 | 0.00 | 0.00 | 34 | 1008.1 |
| 20260501213206 | 15 | 53 | 1.6 | 6.4 | 0.00 | 0.00 | 0.00 | 33 | 1008.0 |
| 20260501212702 | 15 | 277 | 4.8 | 6.4 | 0.00 | 0.00 | 0.00 | 33 | 1008.0 |
| 20260501212159 | 15 | 89 | 6.4 | 9.7 | 0.00 | 0.00 | 0.00 | 34 | 1007.9 |
| 20260501211656 | 15 | 294 | 6.4 | 9.7 | 0.00 | 0.00 | 0.00 | 32 | 1007.9 |
| 20260501211153 | 15 | 17 | 3.2 | 4.8 | 0.00 | 0.00 | 0.00 | 32 | 1007.7 |
| 20260501210650 | 15 | 287 | 8.0 | 11.3 | 0.00 | 0.00 | 0.00 | 34 | 1007.8 |
| 20260501210147 | 16 | 93 | 3.2 | 3.2 | 0.00 | 0.00 | 0.00 | 34 | 1007.6 |
| 20260501205643 | 16 | 352 | 6.4 | 9.7 | 0.00 | 0.00 | 0.00 | 32 | 1007.6 |
| 20260501205141 | 15 | 230 | 1.6 | 3.2 | 0.00 | 0.00 | 0.00 | 36 | 1007.6 |
| 20260501204637 | 16 | 9 | 8.0 | 11.3 | 0.00 | 0.00 | 0.00 | 32 | 1007.8 |
| 20260501204133 | 16 | 269 | 4.8 | 4.8 | 0.00 | 0.00 | 0.00 | 36 | 1007.6 |
| 20260501203630 | 15 | 274 | 6.4 | 11.3 | 0.00 | 0.00 | 0.00 | 36 | 1007.6 |
| 20260501203127 | 16 | 280 | 4.8 | 6.4 | 0.00 | 0.00 | 0.00 | 38 | 1007.5 |
| 20260501202624 | 15 | 259 | 6.4 | 16.1 | 0.00 | 0.00 | 0.00 | 37 | 1007.4 |
| 20260501202121 | 16 | 268 | 6.4 | 9.7 | 0.00 | 0.00 | 0.00 | 37 | 1007.4 |
| 20260501201618 | 16 | 336 | 4.8 | 6.4 | 0.00 | 0.00 | 0.00 | 40 | 1007.6 |
| 20260501201114 | 15 | 301 | 11.3 | 16.1 | 0.00 | 0.00 | 0.00 | 39 | 1007.3 |
| 20260501200612 | 16 | 265 | 3.2 | 6.4 | 0.00 | 0.00 | 0.00 | 40 | 1007.4 |